Regional Weather Roundup
Issued by NWS

Home | Current Version | Previous Version | Text Only | Print | Product List | Glossary On
Versions: 1 2 3 4 5 6 7 8 9 10 11 12 13 14 15 16 17 18 19 20 21 22 23 24 25 26 27 28 29 30 31 32 33 34 35 36 37 38 39 40 41 42 43 44 45 46 47 48 49 50
000
ASUS43 KMPX 021210
RWRMN
WEATHER ROUNDUP FOR MINNESOTA
NATIONAL WEATHER SERVICE TWIN CITIES/CHANHASSEN MN
700 AM CDT WED SEP 02 2015


NOTE: "FAIR" INDICATES FEW OR NO CLOUDS BELOW 12,000 FEET WITH NO
SIGNIFICANT WEATHER AND/OR OBSTRUCTIONS TO VISIBILITY. N/A MEANS
CURRENT SKY AND/OR WEATHER CONDITIONS ARE NOT AVAILABLE.

MNZ060>063-068>070-021300-
   Twin Cities Metro

CITY           SKY/WX    TMP DP  RH WIND       PRES   REMARKS
TWIN CITIES    CLOUDY    70  68  93 E8        29.91S
6HR MIN TEMP:  69; 6HR MAX TEMP:  78; 6HR PCP:  0.23;

ST PAUL        CLOUDY    70  68  93 E6        29.92S
CRYSTAL        CLOUDY    71  68  90 E6        29.90S
BLAINE         CLOUDY    70  70 100 E7        29.92R
LAKEVILLE      CLOUDY    68  66  94 SE6       29.91R
EDEN PRAIRIE   CLOUDY    70  67  90 E8        29.89S
6HR MIN TEMP:  69; 6HR MAX TEMP:  77; 6HR PCP:  0.27;

SOUTH ST PAUL  CLOUDY    70  68  94 SE3       29.92S
LAKE ELMO      DRIZZLE   68  68 100 E6        29.95R
$$
MNZ001>005-007-008-013>017-022>024-027-028-021300-
   Northwest Minnesota

CITY           SKY/WX    TMP DP  RH WIND       PRES   REMARKS
BEMIDJI        FOG       61  61  99 CALM      29.91S VSB<1/4
HALLOCK        CLEAR     66  64  94 SE8       29.82S
ROSEAU         CLEAR     63  57  82 SE5       29.86S
WARROAD        CLEAR     61  57  88 SE3       29.88S
THIEF RVR FALL CLEAR     61  61 100 SE7       29.87R
CROOKSTON      CLEAR     70  66  88 S8        29.85S
FOSSTON        CLEAR     64  63  94 SE5       29.89S FOG
DETROIT LAKES  CLEAR     66  64  94 SE8       29.90S
MOORHEAD       CLEAR     66  63  88 SE9       29.85S
PARK RAPIDS    FOG       66  65  96 SE6       29.92R VSB 1/4
MAHNOMEN       FAIR      66  64  94 CALM      29.88R
$$
MNZ006-009>011-018-025>026-021300-
   North Central Minnesota

CITY           SKY/WX    TMP DP  RH WIND       PRES   REMARKS
BAUDETTE       CLEAR     60  55  83 SE6       29.90R
FLAG ISLAND    PTCLDY    66  59  77 SE3       29.88R
INTL FALLS     CLEAR     60  56  86 SE5       29.92S
6HR MIN TEMP:  49; 6HR MAX TEMP:  60;

WASKISH        CLEAR     61  59  94 CALM      29.90S
BIG FORK       PTCLDY    57  57 100 CALM      29.93S
LONGVILLE      FOG       61  59  94 CALM      29.92R VSB 1
GRAND RAPIDS     N/A     66  64  94 SE5       29.93S
CRANE LAKE     PTCLDY    50  48  93 CALM      29.96S
ORR            MOCLDY    61  57  88 CALM      29.92F
COOK           PTCLDY    57  55  94 CALM      29.95S
WALKER         FOG       63  62  99 CALM      29.92R VSB<1/4
$$
MNZ012-019>021-037-021300-
   Northeast Minnesota

CITY           SKY/WX    TMP DP  RH WIND       PRES   REMARKS
DULUTH         TSTM      67  65  93 SE14      29.97R FOG
6HR MIN TEMP:  67; 6HR MAX TEMP:  71; 6HR PCP:  0.19;

ELY            PTCLDY    55  54  94 CALM      29.97S
HIBBING        MOCLDY    64  61  90 NW3       29.93F
EVELETH        MOCLDY    63  59  88 CALM      29.94F
DULUTH HARBOR  TSTM      63  61  94 SW3       29.95R
TWO HARBORS    TSTM      70  63  78 N5        29.92F
SILVER BAY     CLOUDY    66  61  82 CALM      29.93F
GRAND MARAIS     N/A     53  50  89 N3        29.95S
G MARAIS ARPRT PTCLDY    52  46  82 N3        30.01S
$$
MNZ029>031-032-039>041-046>048-054>057-064-021300-
   West Central Minnesota

CITY           SKY/WX    TMP DP  RH WIND       PRES   REMARKS
FERGUS FALLS   CLEAR     66  64  94 SE7       29.87S
WHEATON        CLEAR     57  57 100 SE6       29.87S
MORRIS         CLOUDY    63  63 100 SE6       29.87R
ALEXANDRIA     PTCLDY    66  64  93 SE7       29.90S
ELBOW LAKE     FAIR      64  62  94 SE5       29.88R
WADENA         FOG       63  63 100 CALM      29.91R VSB<1/4
GLENWOOD       PTCLDY    64  63  94 E5        29.90S
APPLETON       CLEAR     64  61  88 E3        29.86S
BENSON         CLEAR     66  61  82 CALM      29.88R
ORTONVILLE     CLEAR     63  61  94 SE5       29.86S
MADISON        CLEAR     63  61  94 E5        29.86S
WILLMAR        FAIR      66  63  88 SE6       29.90S
$$
MNZ033>034-036-042>043-049>051-058-059-021300-
   Central Minnesota

CITY           SKY/WX    TMP DP  RH WIND       PRES   REMARKS
ST CLOUD       MOCLDY    66  65  96 E7        29.91R FOG
6HR MIN TEMP:  66; 6HR MAX TEMP:  73; 6HR PCP:  0.09;

SAUK CENTRE    FAIR      65  64  97 CALM      29.90S FOG
PAYNESVILLE    PTCLDY    66  64  96 E5        29.90S
AITKIN         MOCLDY    73  66  78 S3        29.92S HAZE
PINE RIVER     CLOUDY    64  64 100 CALM      29.96R FOG
BRAINERD       MOCLDY    70  69  97 CALM      29.92S FOG
STAPLES        FOG       64  64 100 CALM      29.91S VSB 1/4
LONG PRAIRIE   FAIR      64  63  94 CALM      29.90F FOG
LITTLE FALLS   MOCLDY    68  64  88 CALM      29.91S
LITCHFIELD     PTCLDY    66  64  94 CALM      29.90S
BUFFALO        CLOUDY    66  64  93 CALM      29.92R FOG
MAPLE LAKE     MOCLDY    66  65  96 CALM      29.92R FOG
$$
MNZ037-044-045-052-053-021300-
   East Central Minnesota

CITY           SKY/WX    TMP DP  RH WIND       PRES   REMARKS
PRINCETON      MOCLDY    68  64  88 CALM      29.92R
MORA           CLOUDY    68  63  83 E5        29.94F
CAMBRIDGE      CLOUDY    70  61  73 CALM      29.92R HAZE
RUSH CITY      CLOUDY    69  67  93 NE6       29.94F THUNDER
MOOSE LAKE     CLOUDY    72  70  94 S5        29.93R THUNDER FOG
HINCKLEY       CLOUDY    72  72 100 SE6       29.96R
CLOQUET        CLOUDY    66  64  94 E5        29.95S FOG
MCGREGOR       CLOUDY    72  70  94 SW8       29.93F
$$
MNZ071>073-080-081-089-090-097-098-021300-
   Southwest Minnesota

CITY           SKY/WX    TMP DP  RH WIND       PRES   REMARKS
MONTEVIDEO     CLEAR     63  63 100 S5        29.89R
GRANITE FALLS  CLEAR     65  63  94 SE7       29.89R
CANBY          CLEAR     62  60  95 S3        29.86F FOG
MARSHALL       CLEAR     64  61  88 SE7       29.87S
REDWOOD FALLS  CLEAR     67  64  90 S9        29.87R
OLIVIA         CLEAR     61  59  94 CALM      29.88R
PIPESTONE      CLEAR     66  64  94 SE7       29.88S FOG
WINDOM         CLEAR     70  66  88 S8        29.90S
WORTHINGTON    CLEAR     66  63  88 S8        29.90S
JACKSON        CLEAR     70  68  94 S9        29.92S FOG
TRACY          CLEAR     67  66  97 SE6       29.88S FOG
SLAYTON        CLEAR     65  65 100 CALM      29.90S FOG
$$
MNZ065>067-074>077-082>085-091>093-021300-
   South Central Minnesota

CITY           SKY/WX    TMP DP  RH WIND       PRES   REMARKS
MANKATO        PTCLDY    70  64  83 S10       29.91S
NEW ULM        CLEAR     66  66 100 SE7       29.89S
ST JAMES       CLEAR     68  66  94 SE7       29.91S
FAIRMONT       CLEAR     70  63  78 S10       29.92R
GLENCOE        PTCLDY    66  65  97 CALM      29.89R
FARIBAULT      CLOUDY    70  66  88 SE6       29.93S
OWATONNA       CLOUDY    70  64  83 SE9       29.93F
WASECA         CLOUDY    70  68  94 SE6       29.94S
ALBERT LEA     LGT RAIN  68  68 100 SE5       29.97S
$$
MNZ078>079-086>088-094>096-021300-
   Southeast Minnesota

CITY           SKY/WX    TMP DP  RH WIND       PRES   REMARKS
ROCHESTER      CLOUDY    69  68  96 S8        29.97F FOG
6HR MIN TEMP:  69; 6HR MAX TEMP:  72; 6HR PCP:  0.01;

RED WING       CLOUDY    72  70  94 CALM      29.93R
STANTON        CLOUDY    72  66  81 S13G24    29.89F
DODGE CENTER   LGT RAIN  66  66 100 S6        29.96F
AUSTIN         TSTM      70  68  94 CALM      29.98F
PRESTON        MOCLDY    68  66  92 S3        29.99F FOG
$$
ABBREVIATIONS USED IN REMARKS
   TC - TEMPERATURES IN CELSIUS
  WCI - WIND CHILL INDEX
   HX - HEAT INDEX
  VSB - VISIBILITY
$$



USA.gov is the U.S. government's official web portal to all federal, state and local government web resources and services.